{"data":{"norad_id":56339,"epoch":"2026-05-24T22:53:44.335104Z","epoch_age_seconds":76070,"freshness":"FRESH","line1":"1 56339U 23058Y   26144.95398536 -.00001768  00000+0 -11847-3 0  9996","line2":"2 56339  97.4509 144.9774 0002087 108.2207 251.9247 15.05657606169608","mean_motion":15.05657606,"eccentricity":0.0002087,"inclination_deg":97.4509,"raan_deg":144.9774,"arg_perigee_deg":108.2207,"mean_anomaly_deg":251.9247,"bstar":-0.00011847,"rev_number":16960,"period_min":95.639273780549,"perigee_km":548.04202818574,"apogee_km":550.93361878706,"semimajor_km":6927.6248234864,"source":"CELESTRAK","updated_at":"2026-05-25T13:38:18.004411Z"}}